sat.trackr.live / text

‹ back to catalog

STARLINK-33612

NORAD 63325 · 2025-057U

PAYLOAD ACTIVE UNKNOWN

§ Identity

Operator
Country
US
Launch date
2025-03-18
Launch site
AFETR
Launch vehicle
Mass (kg)
RCS (m²)

Purposes: comms

External: N2YO · Heavens-Above · Gunter

§ Orbital elements

Epoch: 2026-09-19T14:56:48.762240Z

Period
94.27 min
Inclination
43.0033°
Eccentricity
0.0001457
Mean motion
15.27599404 rev/d
Perigee alt
482.0 km
Apogee alt
484.0 km
Semi-major
6,861.1 km
B*
4.9962e-4
RAAN
15.9041°
Arg perigee
272.1331°
Mean anomaly
87.9353°
Rev number
8,543

§ Raw data

STARLINK-336121 63325U 25057U   26262.62278660  .00013520  00000+0  49962-3 0  99962 63325  43.0033  15.9041 0001457 272.1331  87.9353 15.27599404 85431

JSON: /api/v1/satellites/63325 · /tle

For live sub-satellite position, see the globe view (requires WebGL).

§ Visibility from observer

Set your observer location to see the next 7 days of passes ≥ 10°. The values pass through the URL so the page stays shareable.

No JS? Fill the form by hand. The geolocation button needs JavaScript.